Weather History for KEBG - December, 2011

Change the Weather History Date:

Thursday, December 1, 2011

  Actual Average (KMFE) Record (KMFE)
Temperature  
Mean Temperature 66 °F 65 °F  
Max Temperature 83 °F 75 °F 95 °F (1950)
Min Temperature 50 °F 55 °F 28 °F (1894)
Degree Days  
Heating Degree Days 0 4  
Month to date heating degree days 4  
Since 1 July heating degree days 64  
Cooling Degree Days 2 4  
Month to date cooling degree days 4  
Year to date cooling degree days 4373  
Growing Degree Days 16 (Base 50)    
Moisture  
Dew Point 52 °F    
Average Humidity 64    
Maximum Humidity 90    
Minimum Humidity 33    
Precipitation  
Precipitation 0.00 in 0.03 in 0.92 in (2009)
Month to date precipitation 0.03  
Year to date precipitation 21.04  
Sea Level Pressure  
Sea Level Pressure 30.04 in    
Wind  
Wind Speed 6 mph (SSE)    
Max Wind Speed 22 mph    
Max Gust Speed 31 mph    
Visibility 9 miles    
Events      
T = Trace of Precipitation, MM = Missing Value Source: NWS Daily Summary

Daily Weather History Graph

Daily Weather History Graph

Search for Another Location

Airport or City:

Trip Planner

Search our weather history database for the weather conditions in past years. The results will help you decide how hot, cold, wet, or windy it might be!

Date:

Astronomy

Dec. 01, 2011 Rise Set
Actual Time 7:03 AM CST 5:39 PM CST
Civil Twilight 6:38 AM CST 6:04 PM CST
Nautical Twilight 6:09 AM CST 6:33 PM CST
Astronomical Twilight 5:41 AM CST 7:01 PM CST
Moon 12:12 PM CST No Moon Set
Length of Visible Light 11h 26m
Length of Day
10h 36m
Waxing Crescent, 43% of the Moon is Illuminated
Dec 1
Waxing Crescent
Dec 2
First Quarter
Dec 10
Full
Dec 17
Last Quarter
Dec 24
New

Hourly Weather History & Observations

Time (CST) Temp. Heat Index Dew Point Humidity Pressure Visibility Wind Dir Wind Speed Gust Speed Precip Events Conditions
12:15 AM 55.6 °F - 51.1 °F 85% 30.07 in 10.0 mi Calm Calm - N/A   Clear
12:35 AM 55.6 °F - 51.1 °F 85% 30.07 in 10.0 mi Calm Calm - N/A   Clear
12:55 AM 55.8 °F - 51.1 °F 84% 30.06 in 10.0 mi Calm Calm - N/A   Clear
1:15 AM 54.5 °F - 50.0 °F 85% 30.05 in 10.0 mi Calm Calm - N/A   Clear
1:35 AM 53.2 °F - 48.7 °F 85% 30.05 in 10.0 mi Calm Calm - N/A   Clear
1:55 AM 53.1 °F - 48.4 °F 84% 30.04 in 10.0 mi Calm Calm - N/A   Clear
2:15 AM 53.6 °F - 49.3 °F 85% 30.04 in 10.0 mi Calm Calm - N/A   Clear
2:55 AM 54.5 °F - 50.9 °F 88% 30.03 in 10.0 mi Calm Calm - N/A   Clear
3:15 AM 54.1 °F - 50.2 °F 86% 30.03 in 10.0 mi Calm Calm - N/A   Clear
3:35 AM 53.2 °F - 48.7 °F 85% 30.02 in 10.0 mi Calm Calm - N/A   Clear
3:55 AM 52.7 °F - 47.7 °F 83% 30.02 in 10.0 mi Calm Calm - N/A   Clear
4:35 AM 53.6 °F - 49.1 °F 85% 30.03 in 10.0 mi Calm Calm - N/A   Scattered Clouds
4:55 AM 52.3 °F - 48.0 °F 85% 30.04 in 10.0 mi Calm Calm - N/A   Scattered Clouds
5:15 AM 51.8 °F - 47.3 °F 85% 30.03 in 10.0 mi Calm Calm - N/A   Clear
5:35 AM 51.4 °F - 46.8 °F 84% 30.04 in 10.0 mi Calm Calm - N/A   Clear
5:55 AM 51.1 °F - 46.6 °F 85% 30.04 in 10.0 mi Calm Calm - N/A   Clear
6:15 AM 50.4 °F - 45.7 °F 84% 30.04 in 10.0 mi ESE 3.5 mph - N/A   Clear
6:35 AM 50.7 °F - 46.8 °F 86% 30.05 in 10.0 mi Calm Calm - N/A   Clear
6:55 AM 51.3 °F - 48.0 °F 89% 30.05 in 10.0 mi SE 3.5 mph - N/A   Clear
7:15 AM 50.9 °F - 48.0 °F 90% 30.06 in 5.0 mi Calm Calm - N/A   Clear
7:35 AM 51.8 °F - 48.9 °F 90% 30.06 in 7.0 mi Calm Calm - N/A   Clear
7:55 AM 54.1 °F - 51.3 °F 90% 30.07 in 7.0 mi SE 3.5 mph - N/A   Clear
8:15 AM 57.2 °F - 54.1 °F 89% 30.07 in 10.0 mi SSE 4.6 mph - N/A   Clear
8:35 AM 61.7 °F - 56.8 °F 84% 30.07 in 10.0 mi SSE 5.8 mph - N/A   Clear
8:55 AM 64.8 °F - 57.4 °F 77% 30.08 in 10.0 mi South 10.4 mph 17.3 mph N/A   Clear
9:15 AM 68.9 °F - 57.2 °F 66% 30.08 in 10.0 mi South 11.5 mph 16.1 mph N/A   Clear
9:35 AM 71.2 °F - 57.2 °F 61% 30.09 in 10.0 mi South 11.5 mph - N/A   Clear
9:55 AM 73.8 °F - 57.4 °F 56% 30.09 in 10.0 mi South 18.4 mph 23.0 mph N/A   Clear
10:15 AM 75.4 °F - 57.4 °F 53% 30.08 in 10.0 mi South 20.7 mph 25.3 mph N/A   Clear
10:35 AM 77.2 °F - 57.0 °F 50% 30.08 in 10.0 mi South 20.7 mph 27.6 mph N/A   Clear
10:55 AM 78.3 °F - 56.5 °F 47% 30.07 in 10.0 mi South 20.7 mph - N/A   Clear
11:15 AM 79.2 °F - 55.4 °F 44% 30.06 in 10.0 mi South 20.7 mph 26.5 mph N/A   Clear
11:35 AM 80.2 °F 80.3 °F 55.0 °F 42% 30.05 in 10.0 mi South 20.7 mph 29.9 mph N/A   Clear
11:55 AM 81.1 °F 80.7 °F 53.8 °F 39% 30.05 in 5.0 mi South 16.1 mph 31.1 mph N/A   Haze
12:15 PM 81.7 °F - 52.5 °F 36% 30.04 in 5.0 mi South 19.6 mph 28.8 mph N/A   Haze
1:15 PM 82.9 °F - 51.8 °F 34% 30.00 in 5.0 mi South 20.7 mph 28.8 mph N/A   Haze
1:35 PM 83.5 °F - 51.6 °F 33% 29.99 in 7.0 mi South 19.6 mph 26.5 mph N/A   Clear
1:55 PM 83.7 °F - 51.6 °F 33% 29.99 in 7.0 mi South 17.3 mph 25.3 mph N/A   Clear
2:15 PM 83.7 °F - 52.2 °F 34% 29.99 in 7.0 mi South 17.3 mph 27.6 mph N/A   Clear
2:35 PM 83.7 °F - 52.7 °F 34% 29.98 in 7.0 mi SSE 18.4 mph 29.9 mph N/A   Clear
2:55 PM 83.5 °F - 52.5 °F 34% 29.98 in 7.0 mi SSE 21.9 mph 28.8 mph N/A   Clear
3:15 PM 83.1 °F - 52.0 °F 34% 29.98 in 7.0 mi SSE 17.3 mph 27.6 mph N/A   Clear
3:35 PM 82.6 °F - 52.0 °F 35% 29.98 in 7.0 mi SSE 19.6 mph 28.8 mph N/A   Clear
3:55 PM 82.0 °F - 51.8 °F 35% 29.98 in 7.0 mi SSE 21.9 mph 27.6 mph N/A   Clear
4:35 PM 80.8 °F - 50.7 °F 35% 29.99 in 7.0 mi SSE 21.9 mph 28.8 mph N/A   Clear
5:15 PM 78.6 °F - 52.7 °F 40% 30.01 in 7.0 mi South 16.1 mph 25.3 mph N/A   Clear
5:35 PM 77.2 °F - 54.7 °F 46% 30.01 in 10.0 mi SSE 15.0 mph 20.7 mph N/A   Clear
5:55 PM 75.7 °F - 55.6 °F 49% 30.02 in 10.0 mi SSE 13.8 mph 18.4 mph N/A   Clear
6:15 PM 74.7 °F - 56.3 °F 53% 30.03 in 10.0 mi SSE 9.2 mph - N/A   Clear
6:35 PM 73.6 °F - 55.9 °F 54% 30.04 in 10.0 mi SSE 12.7 mph - N/A   Clear
6:55 PM 73.0 °F - 55.9 °F 55% 30.06 in 10.0 mi SSE 8.1 mph - N/A   Clear
7:15 PM 71.8 °F - 56.1 °F 58% 30.07 in 10.0 mi SSE 6.9 mph - N/A   Clear
7:35 PM 70.9 °F - 56.5 °F 60% 30.08 in 10.0 mi SSE 8.1 mph - N/A   Clear
7:55 PM 69.6 °F - 56.7 °F 63% 30.08 in 10.0 mi SSE 8.1 mph - N/A   Clear
8:15 PM 68.7 °F - 56.7 °F 65% 30.09 in 10.0 mi SSE 6.9 mph - N/A   Clear
8:35 PM 67.5 °F - 56.7 °F 68% 30.09 in 10.0 mi SE 6.9 mph - N/A   Clear
8:55 PM 66.6 °F - 56.7 °F 70% 30.10 in 10.0 mi SE 6.9 mph - N/A   Clear
9:15 PM 65.8 °F - 57.0 °F 73% 30.10 in 10.0 mi SE 6.9 mph - N/A   Clear
9:35 PM 65.7 °F - 57.2 °F 74% 30.11 in 10.0 mi SSE 5.8 mph - N/A   Clear
9:55 PM 65.7 °F - 57.6 °F 75% 30.12 in 10.0 mi SSE 3.5 mph - N/A   Clear
10:15 PM 65.1 °F - 57.4 °F 76% 30.12 in 10.0 mi SE 4.6 mph - N/A   Clear
10:55 PM 63.5 °F - 56.3 °F 77% 30.12 in 10.0 mi Calm Calm - N/A   Scattered Clouds
11:15 PM 63.1 °F - 56.5 °F 79% 30.12 in 10.0 mi Calm Calm - N/A   Scattered Clouds
11:55 PM 61.3 °F - 55.4 °F 81% 30.11 in 10.0 mi SE 6.9 mph - N/A   Clear